Flag for India Weather past 2 weeks in Dindigul, Tamil Nadu, India

Now
79 °F

Fog.


Feels Like: 82 °F
Forecast: 74 / 96 °F
Wind: 2 mph from North

Location: Tiruchchirapalli

Current Time: Mar 31, 2015 at 7:36:39 AM

Latest Report: Mar 31, 2015 at 6:40 AM


Visibility: 2 mi

Pressure: 29.86 "Hg

Humidity: 89%

Dew point: 75 °F

Location of DindigulLocation

Historic Weather in Dindigul — Graph

°F

Dindigul temperature yesterday

Maximum temperature yesterday: 97 °F (at 1:40 PM)
Minimum temperature yesterday: 77 °F (at 5:40 AM)
Average temperature yesterday: 87 °F

Past Weeks' High & Low Weather Summary

 TemperatureHumidityPressure
High100 °F (Mar 22, 3:40 PM)94% (Mar 30, 5:40 AM)30.01 "Hg (Mar 30, 5:40 AM)
Low72 °F (Mar 18, 5:40 AM)24% (Mar 19, 1:40 PM)29.74 "Hg (Mar 23, 4:40 PM)
Average86 °F59%29.87 "Hg
* Reported Mar 16 5:40 AM — Mar 31 5:40 AM, Dindigul, Weather by CustomWeather, © 2015

Note: Actual official high and low records may vary slightly from our data, if they occured in-between our weather recording intervals... More about our weather records

Advertising

Dindigul weather history for previous 24 hours

 ConditionsComfort  
Time TempWeatherWind HumidityBarometerVisibility
5:40 AM
Tue, Mar 31
81 °FFog.5 mph84%29.83 "Hg2 mi
4:40 AM81 °FFog.3 mph84%29.83 "Hg2 mi
3:40 AM81 °FFog.5 mph84%29.80 "Hg2 mi
2:40 AM81 °FFog.2 mph84%29.80 "Hg3 mi
1:40 AM81 °FFog.2 mph79%29.83 "Hg3 mi
11:40 PM
Mon, Mar 30
82 °FPassing clouds.6 mph74%29.86 "Hg4 mi
10:40 PM84 °FPassing clouds.7 mph66%29.89 "Hg4 mi
9:40 PM84 °FPassing clouds.10 mph66%29.86 "Hg4 mi
8:40 PM86 °FPassing clouds.15 mph62%29.83 "Hg4 mi
7:40 PM88 °FPassing clouds.12 mph55%29.80 "Hg4 mi
6:40 PM93 °FScattered clouds.14 mph47%29.77 "Hg5 mi
5:40 PM97 °FScattered clouds.16 mph37%29.74 "HgN/A
4:40 PM95 °FScattered clouds.7 mph41%29.74 "HgN/A
3:40 PM95 °FScattered clouds.15 mph39%29.74 "HgN/A
2:40 PM97 °FScattered clouds.10 mph37%29.77 "HgN/A
1:40 PM97 °FScattered clouds.5 mph34%29.80 "HgN/A
12:40 PM95 °FScattered clouds.2 mph41%29.83 "Hg5 mi
11:40 AM93 °FScattered clouds.3 mph47%29.86 "Hg4 mi
9:40 AM88 °FScattered clouds.5 mph59%29.92 "Hg4 mi
8:40 AM86 °FScattered clouds.6 mph66%29.89 "Hg3 mi
7:40 AM81 °FFog.5 mph79%29.89 "Hg2 mi
Weather by CustomWeather, © 2015

See weather overviewHow to use our weather pages